Location: Breux
(46.3269°N, 3.2993°E)
Time: 00:53:32
(UTC+00:00)

Cosmos 2218 Rocket - Pass Details

Date: 09 April 2020
Orbit: 957 x 1005 km, 82.9° (Epoch: 02 June)

Event Time Altitude Azimuth Distance (km) Brightness Sun altitude
Rises 20:55:10 0° 348° (NNW) 3,668 7.9 -23.4°
Reaches altitude 10° 20:57:41 10° 345° (NNW) 2,723 7.1 -23.7°
Maximum altitude 21:03:47 59° 267° (W) 1,121 4.4 -24.5°
Enters shadow 21:07:09 27° 199° (SSW) 1,773 5.1 -24.9°
